Vertical_Velocity
3 4 5 5 4 0 -2 -2 -1 -1 -4 -1 1 3 1 3 1 0 1 2 1 1 0 -2 -0 2 -1 -0 3 -0 -1 0 2 -3 5 -1 -3 -2 3 -3 4 4 4
1 1 2 1 1 -0 -2 -1 -0 1 2 -1 0 1 3 2 0 2 1 2 2 2 0 2 1 3 2 1 2 4 -0 -4 2 1 -0 -11 -1 6 4 2 2 -3 -1
-1 -2 -2 -0 1 1 2 1 1 1 0 -0 2 2 2 3 3 6 2 4 2 2 2 2 2 1 1 1 3 6 7 2 3 6 7 -3 -9 -0 3 -0 3 3 -0
-0 -0 -1 -2 -3 -2 -1 -2 -1 0 1 1 0 -1 -0 -3 1 -1 -2 -1 -1 -1 -1 -0 -1 -3 -0 -3 1 3 2 0 -7 -6 3 -1 6 -5 -18 1 2 1 -1
-1 -1 -2 -0 2 2 1 1 0 0 1 1 1 0 -0 -1 1 0 -2 -1 1 -0 -2 -1 -1 -1 -2 -4 -3 -2 -3 -3 -1 3 5 -2 -1 5 5 -11 -21 -3 3
-1 -1 0 1 -1 -2 -2 -2 -3 -3 -3 -3 -1 -1 -1 -1 -1 -1 -1 -2 -3 -2 0 -2 -2 -1 1 2 3 3 2 2 1 -0 0 3 1 -11 5 5 -1 -1 -6
0 1 1 0 0 -1 -1 0 -1 -1 -1 0 2 2 2 1 0 -0 -1 0 0 1 1 1 -1 -2 -3 0 3 4 4 4 4 1 -1 7 -0 -0 3 1 -8 2 0
-0 0 -1 1 0 -0 -1 2 4 2 3 3 2 1 -0 -0 1 1 2 1 0 -0 0 2 3 1 -1 -3 -3 -5 -5 -3 -1 2 3 1 -3 4 6 8 5 -7 -6
2 3 1 -0 0 0 2 2 1 1 1 2 2 3 4 5 4 4 4 4 4 2 3 3 2 2 3 3 2 1 -3 -1 1 4 5 9 8 7 5 2 9 6 -7
1 -2 2 2 1 1 -0 -3 -0 0 1 1 0 -1 -2 -1 -0 1 1 2 1 1 1 -0 0 1 1 1 -1 -2 4 1 5 2 2 -0 4 5 3 6 3 3 -1
3 3 2 0 -1 -1 -4 -2 1 2 2 1 -0 -1 -1 -2 -2 -3 -3 -3 -1 -1 0 1 0 -0 2 5 7 9 3 3 2 1 -1 -1 1 1 3 5 5 -1 10
1 2 -3 -4 -3 -3 -4 -3 1 -4 -4 -5 -5 -4 -3 -3 -4 -4 -4 -4 -3 -1 -4 -1 1 1 2 2 4 -1 -1 -3 0 5 5 -1 4 1 0 -2 -4 -5 5
-4 -0 1 0 -2 0 -0 -0 -0 -1 -1 -2 -2 -2 -4 -5 -3 -4 -3 -2 -5 -5 -2 -2 -3 -1 3 0 2 -3 -1 0 -1 -3 -3 -2 2 3 4 4 1 2 -3
5 1 1 -1 -2 0 2 1 -2 -1 -2 -1 1 -1 -2 -0 -4 -3 -3 -4 -3 -3 -0 2 -1 -2 -3 -2 1 2 -3 -6 -5 -1 3 0 2 -1 -1 1 3 3 -3
1 -0 -2 0 3 4 2 1 3 3 -2 -3 -3 -4 -2 -4 -4 -4 -4 -2 -2 -1 -0 -5 -1 -1 -0 -0 -4 -5 -5 -2 -5 2 3 3 4 6 4 -4 -0 -2 -5
-2 -6 -4 -0 1 -1 -2 -1 -2 -4 -4 -3 -5 -3 -5 -3 -3 -3 -2 -4 -3 -4 -6 -2 -6 -5 -1 0 3 -14 -11 -4 1 -6 3 1 -1 4 3 7 5 6 -1
2 1 -0 -0 -2 -1 2 1 -1 -2 -0 -2 -0 -2 -3 -3 -3 -3 -1 0 -3 -3 -1 -4 -8 -2 -1 -4 -5 -5 -7 -3 -3 -5 -1 -2 3 5 -4 1 -2 -0 6
3 -0 2 4 3 1 -3 2 1 1 -2 -2 -1 -2 -2 -1 1 -1 1 2 -1 -4 -1 1 -2 -3 0 3 -5 -5 -4 -7 -1 1 -2 -10 -3 9 -4 -6 -6 -6 1
-9 -5 2 -3 -1 -4 3 0 -4 -4 -3 -2 -1 -4 -6 -3 -4 -2 -6 0 -6 -2 -1 -6 -3 -3 5 -2 -4 2 -5 -3 -1 1 -3 -0 -1 4 7 -5 -7 -5 -2
-2 -2 -1 -8 -6 -3 -1 -1 -1 -3 -3 -2 -1 -2 -2 -5 -4 -4 -2 -6 -4 0 -5 -5 -1 1 1 -3 1 4 -4 -4 1 6 1 6 2 2 6 -5 -7 -17 3
10 1 -2 0 2 2 0 -0 -0 -2 -0 -0 0 -1 -3 -5 -3 -3 -2 -2 -0 -3 -3 -1 0 1 1 -2 0 1 -0 -1 -4 -6 -3 2 3 4 4 8 -1 -5 -6
-1 0 0 -0 -1 -2 -1 1 -3 -1 1 2 2 0 -2 -0 -2 -3 2 -0 -5 -3 -2 -3 -1 2 0 3 -1 -1 2 2 -2 -4 -2 -3 2 2 4 2 0 1 0
-3 -1 0 -1 -2 -2 -1 2 1 2 4 2 -1 -2 -2 0 3 -3 -3 -4 -0 -3 -4 -4 -5 -5 -1 -0 -1 -4 -1 2 -0 5 -3 -0 0 1 4 3 -1 -2 -0
1 1 2 3 1 -2 0 -2 -0 2 2 -3 -2 -2 -1 -0 2 2 -2 -4 -2 -3 -1 -3 -2 -3 -4 -0 -3 -3 -6 3 3 1 3 3 3 -1 -3 -3 0 0 1
-2 -1 2 -0 -2 -2 4 -1 -2 -2 -1 -4 -6 -3 -4 -4 -5 4 -4 -4 7 -4 -11 -7 -6 -8 -8 -1 0 -2 -7 -5 -3 -10 -0 -0 2 0 1 2 -0 0 -2
-1 1 -0 -1 2 1 2 -3 -1 -6 -6 -4 -4 -1 -6 -2 -1 -9 -12 17 1 2 3 6 3 1 5 0 -3 -2 1 -0 -3 -3 -3 1 1 -1 -4 -5 -1 -2 -2
Height
3126 3126 3125 3124 3123 3121 3120 3119 3117 3114 3112 3111 3110 3110 3110 3109 3108 3108 3107 3107 3106 3104 3102 3100 3100 3099 3097 3096 3093 3090 3088 3086 3083 3077 3075 3073 3072 3071 3068 3065 3062 3060 3057
3122 3122 3122 3122 3122 3120 3118 3116 3114 3111 3109 3106 3104 3104 3105 3104 3103 3103 3102 3100 3099 3098 3096 3094 3093 3092 3090 3088 3086 3083 3081 3078 3076 3071 3065 3060 3063 3063 3061 3058 3055 3052 3049
3120 3120 3120 3120 3119 3117 3115 3113 3111 3108 3105 3103 3101 3099 3098 3098 3099 3099 3097 3096 3093 3091 3088 3086 3085 3083 3080 3078 3076 3074 3071 3067 3068 3065 3059 3051 3049 3050 3053 3050 3047 3043 3041
3118 3118 3117 3116 3115 3113 3112 3110 3108 3105 3102 3100 3098 3096 3094 3093 3093 3091 3090 3088 3085 3083 3080 3078 3075 3072 3070 3068 3065 3063 3061 3058 3055 3053 3052 3047 3044 3038 3034 3041 3038 3034 3033
3115 3114 3114 3113 3111 3110 3109 3108 3105 3103 3100 3097 3095 3092 3090 3088 3086 3084 3082 3080 3077 3074 3071 3069 3066 3063 3060 3058 3056 3053 3050 3048 3044 3041 3039 3035 3035 3033 3026 3017 3027 3023 3023
3112 3111 3111 3110 3108 3107 3105 3104 3102 3099 3097 3095 3092 3089 3087 3084 3081 3078 3076 3073 3070 3067 3063 3060 3057 3055 3051 3048 3045 3042 3040 3037 3033 3031 3028 3025 3022 3022 3018 3011 3007 3006 3010
3109 3108 3108 3107 3105 3104 3103 3101 3098 3096 3093 3089 3086 3083 3080 3077 3075 3072 3068 3065 3062 3059 3055 3051 3047 3044 3041 3038 3035 3032 3029 3027 3023 3020 3018 3015 3011 3010 3007 3002 2997 2993 2994
3106 3106 3106 3105 3103 3101 3098 3095 3093 3090 3087 3084 3081 3078 3075 3072 3069 3065 3062 3058 3055 3051 3048 3044 3039 3035 3031 3027 3024 3020 3017 3015 3012 3010 3007 3003 3001 2998 2995 2991 2988 2980 2977
3104 3104 3102 3100 3098 3095 3092 3090 3088 3084 3081 3078 3075 3071 3068 3065 3062 3058 3054 3051 3046 3042 3039 3034 3030 3026 3022 3018 3013 3009 3005 3002 3000 2997 2994 2991 2988 2986 2983 2980 2977 2972 2963
3102 3100 3098 3096 3093 3089 3085 3083 3081 3077 3074 3071 3067 3064 3061 3058 3054 3050 3046 3042 3037 3032 3027 3023 3019 3016 3012 3008 3004 3000 2996 2990 2987 2983 2980 2977 2975 2973 2970 2967 2963 2960 2954
3097 3095 3093 3090 3087 3083 3079 3078 3075 3072 3069 3065 3062 3058 3054 3051 3046 3041 3036 3031 3027 3022 3017 3011 3006 3002 2998 2993 2989 2986 2982 2978 2973 2969 2966 2963 2962 2959 2957 2954 2951 2946 2944
3092 3090 3088 3085 3081 3076 3073 3072 3069 3065 3062 3058 3054 3050 3045 3042 3037 3033 3027 3022 3017 3012 3007 3001 2996 2990 2986 2981 2976 2971 2966 2961 2957 2954 2952 2951 2949 2945 2943 2940 2937 2932 2929
3087 3084 3080 3077 3072 3069 3067 3064 3061 3058 3054 3049 3046 3041 3036 3033 3027 3021 3016 3011 3005 3000 2995 2989 2984 2978 2974 2969 2965 2959 2954 2950 2945 2942 2939 2936 2934 2931 2929 2926 2921 2918 2915
3081 3077 3074 3071 3068 3065 3061 3058 3054 3050 3045 3041 3038 3032 3028 3023 3017 3012 3006 3000 2994 2988 2983 2979 2973 2968 2962 2957 2952 2946 2940 2937 2934 2931 2927 2923 2918 2914 2911 2907 2906 2903 2899
3073 3071 3069 3067 3063 3058 3054 3051 3047 3042 3037 3033 3028 3023 3018 3012 3006 3000 2994 2988 2982 2977 2971 2966 2962 2957 2951 2946 2939 2934 2929 2924 2920 2918 2913 2909 2905 2901 2897 2892 2889 2887 2884
3065 3063 3061 3058 3055 3050 3047 3044 3038 3033 3029 3023 3018 3012 3006 3000 2994 2987 2981 2975 2970 2964 2958 2953 2947 2943 2938 2933 2928 2920 2916 2913 2908 2903 2900 2896 2893 2889 2883 2879 2875 2873 2869
3060 3056 3053 3050 3047 3043 3039 3034 3029 3024 3019 3013 3007 3001 2995 2989 2982 2976 2970 2963 2957 2951 2944 2938 2932 2928 2921 2916 2911 2905 2903 2900 2895 2890 2885 2881 2878 2874 2868 2864 2860 2858 2856
3054 3050 3046 3042 3038 3034 3029 3025 3021 3016 3009 3003 2997 2991 2985 2979 2973 2966 2960 2952 2946 2939 2932 2925 2919 2915 2908 2901 2894 2889 2886 2882 2879 2875 2871 2867 2863 2859 2853 2848 2844 2843 2840
3049 3045 3040 3035 3030 3025 3021 3017 3011 3005 2999 2993 2987 2981 2975 2969 2963 2956 2949 2942 2936 2928 2920 2913 2907 2901 2895 2887 2882 2877 2870 2865 2861 2858 2857 2853 2848 2845 2841 2833 2828 2824 2823
3039 3034 3029 3025 3021 3016 3010 3005 2999 2994 2988 2983 2978 2972 2965 2959 2952 2945 2938 2931 2924 2915 2907 2901 2896 2888 2881 2874 2871 2864 2856 2850 2844 2842 2842 2840 2835 2832 2828 2821 2815 2809 2808
3028 3025 3020 3015 3010 3004 2999 2994 2989 2984 2979 2975 2969 2963 2956 2950 2943 2936 2929 2921 2912 2904 2898 2891 2884 2877 2870 2864 2859 2852 2844 2837 2830 2828 2826 2825 2823 2819 2815 2811 2804 2798 2792
3017 3013 3008 3003 2998 2994 2989 2984 2979 2975 2970 2966 2961 2955 2948 2941 2934 2926 2918 2910 2902 2894 2886 2879 2872 2866 2860 2855 2848 2840 2834 2827 2820 2816 2814 2812 2810 2806 2802 2798 2793 2787 2780
3006 3001 2997 2994 2989 2985 2981 2977 2972 2968 2963 2958 2952 2945 2939 2931 2923 2915 2907 2899 2892 2883 2875 2868 2860 2854 2849 2844 2837 2830 2823 2817 2812 2807 2804 2802 2799 2795 2790 2786 2781 2775 2769
2996 2992 2989 2985 2981 2976 2974 2969 2964 2959 2953 2947 2941 2935 2928 2921 2913 2905 2897 2889 2881 2874 2866 2859 2851 2844 2839 2834 2827 2820 2813 2808 2802 2799 2796 2792 2789 2785 2781 2776 2770 2766 2761
2986 2983 2980 2977 2973 2970 2966 2962 2956 2950 2945 2937 2931 2925 2918 2911 2903 2897 2888 2880 2874 2865 2856 2850 2842 2835 2830 2825 2819 2811 2805 2799 2794 2789 2786 2783 2780 2776 2772 2767 2761 2756 2751
2978 2976 2973 2970 2966 2962 2958 2953 2947 2941 2934 2927 2921 2913 2906 2898 2890 2882 2877 2873 2865 2857 2850 2844 2836 2830 2824 2818 2811 2805 2800 2794 2788 2784 2779 2776 2772 2768 2764 2758 2752 2747 2742